{"data":{"norad_id":59493,"epoch":"2026-09-21T10:31:29.017920Z","epoch_age_seconds":84296,"freshness":"FRESH","line1":"1 59493U 24071K   26264.43853030  .00000364  00000+0  22740-4 0  9991","line2":"2 59493  43.0024 321.9756 0001258 267.9028  92.1679 15.27577392136875","mean_motion":15.27577392,"eccentricity":0.0001258,"inclination_deg":43.0024,"raan_deg":321.9756,"arg_perigee_deg":267.9028,"mean_anomaly_deg":92.1679,"bstar":2.274e-5,"rev_number":13687,"period_min":94.266909653243,"perigee_km":482.19376714769,"apogee_km":483.92004353428,"semimajor_km":6861.193905341,"source":"CELESTRAK","updated_at":"2026-09-22T09:00:48.957417Z"}}